TIME,DELAY(SENSOR),PRES,OXYGEN,RAWTEMP,T(OPTODE),TCPHASE,FLUOR,BETA(BETA700),BETA(BETA412),BETA(BETA440),CDOM,C(CSC),ED(ED411.90),ED(ED443.80),ED(ED489.40),ED(ED554.70),LU(LU412.20),LU(LU443.80),LU(LU489.40),LU(LU555.00),COMP,TILTX,TILTY,CHECK
1367014748,5804,835.0100097656250000,230.7467041015625000,539.2573852539062000,6.3061828613281250,36.8307991027832000,52,110,99,81,80,11154,2146964141,2147518674,2147296859,2147518701,2147086582,2146925156,2147728621,2147120877,2235,-1,8,31827
1367018344,5805,926.9799804687500000,267.8919067382812500,570.6085205078125000,5.3208599090576170,35.5697898864746100,52,104,98,80,80,11158,2146962825,2147517741,2147298880,2147527826,2147088566,2146916388,2147731894,2147116754,215,-1,8,55927
1367021944,5807,955.2999877929688000,267.9500122070312500,574.6444091796875000,5.1934318542480470,35.6420707702636700,53,104,97,78,81,11163,2146960292,2147518619,2147301888,2147525037,2147088237,2146918619,2147736329,2147118162,128,-1,8,23736
1367025544,5805,989.7600097656250000,275.5392150878906000,580.6472778320312000,5.0036411285400390,35.4120292663574200,53,114,100,81,80,11149,2146963492,2147518921,2147299446,2147527049,2147085101,2146916342,2147732754,2147115675,3254,-1,8,8039
1367029144,5807,993.6900024414062000,275.5188903808594000,582.9611816406250000,4.9304008483886720,35.4557914733886700,52,111,99,80,79,11149,2146961728,2147518802,2147303030,2147524214,2147091611,2146919981,2147733568,2147117622,2,0,8,22143
1367032744,5804,998.7999877929688000,276.2782897949219000,584.6810913085938000,4.8759331703186035,35.4537391662597660,52,107,99,82,80,11146,2146962642,2147522020,2147302774,2147526646,2147087277,2146915456,2147735771,2147117942,3324,-1,8,19241
1367036344,5804,1002.2500000000000000,282.1181945800781000,586.4185791015625000,4.8208808898925780,35.2313613891601560,52,112,100,80,80,11146,2146962459,2147519094,2147303515,2147528420,2147086509,2146915684,2147737115,2147117449,3249,0,8,60806
1367039944,5805,1004.1900024414062000,285.5172119140625000,586.1063842773438000,4.8307719230651855,35.0800094604492200,52,107,98,80,80,11145,2146963602,2147519661,2147302070,2147527305,2147089106,2146917174,2147733915,2147122477,3468,0,8,34841
1367043544,5803,1011.4199829101562000,287.2244873046875000,585.7426757812500000,4.8422989845275880,35.0007400512695300,52,111,99,79,80,11142,2146961581,2147518528,2147303570,2147526518,2147086930,2146916836,2147734884,2147117467,3506,0,8,21628
1367047144,5808,1006.2000122070312000,282.2616882324219000,584.8890991210938000,4.8693451881408690,35.1969490051269500,52,108,100,81,80,11141,2146962075,2147517787,2147303369,2147525083,2147088128,2146922102,2147736146,2147117458,2702,-1,8,55918
1367050744,5808,1007.9799804687500000,284.2865905761719000,586.4755249023438000,4.8190770149230960,35.1393699645996100,53,112,99,80,80,11139,2146959369,2147518518,2147300123,2147527497,2147088201,2146924745,2147731437,2147119725,282,-1,8,14605
1367054344,5807,1006.1699829101562000,285.6524047851562500,586.4569091796875000,4.8196659088134770,35.0803298950195300,52,112,99,80,79,11137,2146958235,2147514331,2147301110,2147527460,2147086363,2146919570,2147736960,2147117302,478,-1,8,24173
1367057944,5806,1005.8400268554688000,287.4695129394531000,587.4254760742188000,4.7889628410339355,35.0214195251464840,51,113,101,86,79,11135,2146960073,2147519744,2147302564,2147528603,2147088530,2146916160,2147737188,2147119972,3180,0,8,25002
1367061544,5803,1009.8200073242188000,280.7874145507812500,587.5988769531250000,4.7834658622741700,35.3111991882324200,52,111,100,81,79,11130,2146959561,2147518500,2147303341,2147529152,2147089901,2146917961,2147737344,2147117686,3538,0,8,35975
1367065144,5805,1013.9899902343750000,289.1742858886719000,587.5360107421875000,4.7854609489440920,34.9511718750000000,52,112,100,81,80,11054,2146959186,2147519021,2147301586,2147531062,2147087808,2146919552,2147731465,2147118793,124,-1,8,2116
1367068744,5804,1006.5999755859375000,286.1210021972656000,587.4530029296875000,4.7880921363830570,35.0793495178222660,53,113,106,80,80,11050,2146961353,2147519204,2147300818,2147526710,2147084626,2146917769,2147732096,2147118336,3501,-1,8,5266
1367072344,5805,1010.3099975585938000,279.8503112792969000,587.6033935546875000,4.7833251953125000,35.3518295288085940,53,114,98,81,79,11048,2146961060,2147516717,2147301046,2147530075,2147086217,2146916891,2147737289,2147120694,3264,0,8,30388
1367075944,5809,1009.9899902343750000,287.9660949707031000,587.6046752929688000,4.7832808494567870,35.0035896301269500,52,124,100,81,80,11048,2146962770,2147520192,2147303725,2147523968,2147086884,2146916617,2147736694,2147117824,80,-1,8,52360
1367079544,5807,1011.3800048828125000,288.4682006835937500,587.6594238281250000,4.7815489768981930,34.9834518432617200,52,110,101,81,80,11051,2146962038,2147515565,2147302107,2147525421,2147090980,2146917650,2147735652,2147117074,119,-1,8,17952
1367083144,5804,1010.2199707031250000,284.9961853027344000,587.9968261718750000,4.7708530426025390,35.1370086669921900,51,111,101,90,81,11052,2146962633,2147516800,2147303122,2147528219,2147088521,2146916242,2147734528,2147119698,3559,-1,8,20680
1367086744,5805,1012.7999877929688000,285.7253112792969000,587.8994140625000000,4.7739391326904300,35.1044692993164060,51,113,100,79,81,11047,2146962468,2147520082,2147304804,2147528228,2147089216,2146920685,2147737782,2147117796,3579,-1,8,29555
1367090344,5809,1009.0999755859375000,284.6929016113281000,588.1406250000000000,4.7662940025329590,35.1526489257812500,53,115,99,81,80,11045,2146962861,2147518198,2147303817,2147527387,2147089682,2146914102,2147735350,2147118683,71,-1,8,41394
1367093944,5807,1010.7600097656250000,288.9460144042969000,588.1641845703125000,4.7655429840087890,34.9730796813964840,52,107,98,82,80,11049,2146964928,2147519570,2147301065,2147523684,2147085595,2146921627,2147732790,2147121289,621,-1,8,27712
1367097544,5805,1015.0399780273438000,290.0054016113281000,587.9033203125000000,4.7738170623779300,34.9238090515136700,52,112,102,80,81,11043,2146961133,2147519597,2147305005,2147526994,2147087561,2146913353,2147734080,2147120027,460,0,8,44660
1367101144,5805,1013.0800170898438000,286.9955139160156000,588.0604248046875000,4.7688350677490230,35.0533790588378900,51,110,99,89,80,11041,2146961654,2147514532,2147299072,2147528667,2147083520,2146914258,2147732553,2147119780,2864,-1,8,28689
1367104744,5806,1005.6799926757812000,282.9874877929687500,588.0894165039062000,4.7679162025451660,35.2252883911132800,52,121,99,81,80,11043,2146961965,2147519533,2147301440,2147526171,2147085485,2146915638,2147731547,2147116288,3356,-1,8,56971
1367108344,5803,1006.5499877929688000,284.3287963867187500,589.3582153320312000,4.7276778221130370,35.1910705566406250,51,106,99,79,80,11047,2146964251,2147519698,2147301686,2147529554,2147085714,2146917321,2147735296,2147118454,3087,-1,8,63374
1367111944,5804,1010.7600097656250000,291.2153015136719000,589.2921142578125000,4.7297739982604980,34.8990898132324200,52,101,96,79,79,11049,2146964196,2147521590,2147298889,2147526564,2147088347,2146911058,2147736091,2147119451,3372,-1,8,39474
1367115544,5806,1018.0399780273438000,290.8161010742187500,588.6583251953125000,4.7498779296875000,34.9037208557128900,52,105,97,80,80,11044,2146961005,2147517558,2147300406,2147528649,2147087021,2146918025,2147736758,2147118262,190,0,8,47786
1367119144,5806,1015.7999877929688000,288.2515869140625000,588.2669067382812000,4.7622871398925780,35.0039405822753900,52,110,99,81,80,11033,2146964690,2147521956,2147303094,2147528045,2147086006,2146916507,2147735323,2147118729,3278,-1,8,21223
1367122744,5808,1018.7800292968750000,290.2348022460937500,588.4353027343750000,4.7569470405578610,34.9234809875488300,53,114,99,81,80,11030,2146960155,2147521929,2147302418,2147528566,2147090861,2146917193,2147730834,2147122020,318,-1,8,1161
1367126344,5808,1016.2899780273438000,285.0831909179687500,588.4769897460938000,4.7556247711181640,35.1427803039550800,52,111,99,81,80,11020,2146959232,2147522816,2147303835,2147526784,2147090112,2146913636,2147735003,2147122066,142,0,8,17367
1367129944,5804,1018.3200073242188000,290.3562011718750000,588.3660888671875000,4.7591419219970700,34.9176788330078100,52,112,99,82,80,11022,2146962925,2147517147,2147302107,2147529179,2147086153,2146920548,2147736320,2147118473,3278,-1,8,61576
1367133544,5805,1018.8400268554688000,290.3823852539062500,588.3322143554688000,4.7602181434631350,34.9155883789062500,52,109,99,82,80,11020,2146960694,2147519917,2147301357,2147525979,2147084726,2146917147,2147737563,2147121490,3506,0,8,64125
1367137144,5804,1024.0500488281250000,290.3315124511719000,587.8853759765625000,4.7743840217590330,34.9093894958496100,52,110,101,80,80,11016,2146960740,2147522075,2147301622,2147523620,2147084452,2146918153,2147737453,2147119250,3521,-1,8,32390
1367140744,5809,1024.2099609375000000,288.6153869628906000,586.9921264648438000,4.8027038574218750,34.9648094177246100,52,109,99,80,79,11015,2146964608,2147520886,2147302610,2147524114,2147087597,2146920841,2147732489,2147122486,4,0,8,22059
1367144344,5805,1022.2999877929688000,284.9059143066406000,586.7213134765625000,4.8112850189208980,35.1170005798339840,50,111,100,79,80,11016,2146961801,2147521088,2147302281,2147526390,2147086683,2146918134,2147737974,2147118738,240,0,8,8028
1367147944,5805,1020.3200073242188000,284.1718139648437500,587.4202880859375000,4.7891268730163570,35.1618804931640600,53,112,99,79,79,11016,2146964480,2147517906,2147302628,2147525769,2147086290,2146914752,2147733366,2147125001,3450,-1,8,3165
1367151544,5807,1019.9400024414062000,283.7525024414062500,587.5720825195312000,4.7843170166015625,35.1825981140136700,51,108,99,80,80,11010,2146960411,2147521993,2147301504,2147524891,2147084790,2146915556,2147735104,2147119497,215,-1,8,37868
1367155144,5805,1015.2199707031250000,285.4910888671875000,587.7944946289062000,4.7772660255432130,35.1124000549316400,51,113,99,82,80,11008,2146962002,2147519195,2147302153,2147526061,2147083995,2146916352,2147733705,2147119451,3212,-1,8,26855
1367158744,5807,1013.2999877929688000,287.4382019042969000,588.0396728515625000,4.7694911956787110,35.0339508056640600,52,110,99,81,79,11006,2146962514,2147521984,2147305353,2147528987,2147086784,2146913142,2147734784,2147118829,2603,-1,8,8907
1367159756,5807,1015.0300292968750000,285.5617065429687500,588.0620727539062000,4.7687821388244630,35.1141281127929700,52,110,98,80,80,11087,2146961280,2147521280,2147300388,2147524278,2147086838,2146915794,2147736009,2147117202,350,-1,8,979
